Location: Poughquag
(41.6090°N, 73.6820°W)
Time: 02:05:09
(UTC-04:00)

Starlink (trailer) - Visible Passes

Search period start: 16 September 2019 00:00
Search period end: 26 September 2019 00:00
Orbit: 549 x 551 km, 53.0° (Epoch: 15 September)

Date Brightness Start Highest point End Pass type
(mag) Time Alt. Az. Time Alt. Az. Time Alt. Az.
16 Sep 6.2 03:41:44 16° E 03:41:44 16° E 03:43:14 10° E visible
16 Sep 3.7 05:17:24 28° WSW 05:19:27 64° NW 05:23:34 10° NE visible
17 Sep 6.2 03:36:47 18° E 03:36:47 18° E 03:38:10 10° ENE visible
17 Sep 4.0 05:12:27 31° W 05:14:04 50° NNW 05:18:06 10° NE visible
18 Sep 6.3 03:31:45 18° ENE 03:31:45 18° ENE 03:32:58 10° ENE visible
18 Sep 4.4 05:07:25 31° WNW 05:08:42 39° NNW 05:12:38 10° NE visible
19 Sep 6.4 03:26:40 17° ENE 03:26:40 17° ENE 03:27:40 10° ENE visible
19 Sep 4.7 05:02:20 28° NW 05:03:23 32° NNW 05:07:09 10° NE visible
20 Sep 6.6 03:21:33 15° ENE 03:21:33 15° ENE 03:22:19 10° ENE visible
20 Sep 4.9 04:57:13 25° NW 04:58:04 27° NNW 05:01:39 10° NE visible
21 Sep 6.7 03:16:24 13° NE 03:16:24 13° NE 03:16:54 10° NE visible
21 Sep 5.2 04:52:03 23° NW 04:52:47 24° NNW 04:56:11 10° NE visible
22 Sep 6.9 03:11:13 11° NE 03:11:13 11° NE 03:11:27 10° NE visible
22 Sep 5.4 04:46:52 20° NNW 04:47:30 21° NNW 04:50:43 10° NE visible
23 Sep 5.6 04:41:40 19° NNW 04:42:14 19° NNW 04:45:17 10° NE visible
24 Sep 5.7 04:36:28 18° NNW 04:37:00 18° N 04:39:54 10° NE visible
24 Sep 5.8 06:14:42 10° NW 06:17:48 20° NNE 06:20:53 10° ENE visible
25 Sep 5.8 04:31:17 17° NNW 04:31:45 17° N 04:34:33 10° NE visible
25 Sep 5.7 06:09:15 10° NW 06:12:31 22° NNE 06:15:47 10° ENE visible
